AAL811 YPAD-PANC

Flight info

Callsign AAL811
Flight time 13h 33m
Altitude 35000
Route UPROT Y27 IGIPA Y46 EMTID Y27 BN/N0496F360 Q67 BIXAD/N0495F350 A598 IKODA/N0498F370 A598 MAJ/N0492F390 DCT 11N172E 16N173E/N0492F380 DCT NATIE/N0487F390 DCT 25N175E 30N177E DCT 35E80/N0479F410 DCT 40N178W 45N175W 49N171W DCT DUT J115 TUCKS DCT SNAAG NEELL7
Aircraft B788/H-L/5005

Departure

Time 2026-04-30 21:13
Airport Adelaide International Airport (YPAD)

Arrival

Time 2026-05-01 10:46
Airport Ted Stevens Anchorage International Airport (PANC)
Time Latitude Longitude Altitude Speed Heading
2026-04-30 21:11 -34.95819 138.51771 33 ft 0 kts 50°
2026-04-30 21:12 -34.95811 138.51782 33 ft 3 kts 50°
2026-04-30 21:12 -34.95695 138.51952 33 ft 68 kts 50°
2026-04-30 21:12 -34.95204 138.52667 33 ft 148 kts 50°
2026-04-30 21:12 -34.94427 138.53797 351 ft 174 kts 50°
2026-04-30 21:13 -34.93654 138.54888 1271 ft 178 kts 51°
2026-04-30 21:13 -34.92816 138.56098 1809 ft 195 kts 51°
2026-04-30 21:13 -34.91918 138.57413 2332 ft 206 kts 48°
2026-04-30 21:13 -34.90984 138.58772 2805 ft 218 kts 46°
2026-04-30 21:14 -34.89986 138.60212 3271 ft 225 kts 44°
2026-04-30 21:14 -34.88955 138.61680 3655 ft 234 kts 43°
2026-04-30 21:14 -34.87862 138.63238 3995 ft 248 kts 43°
2026-04-30 21:14 -34.86715 138.64875 4536 ft 257 kts 43°
2026-04-30 21:15 -34.85555 138.66537 5320 ft 257 kts 44°
2026-04-30 21:15 -34.84414 138.68172 6094 ft 257 kts 44°
2026-04-30 21:15 -34.83240 138.69862 6718 ft 264 kts 45°
2026-04-30 21:15 -34.82054 138.71617 7346 ft 270 kts 46°
2026-04-30 21:16 -34.80859 138.73397 8007 ft 273 kts 46°
2026-04-30 21:16 -34.79654 138.75196 8669 ft 277 kts 47°
2026-04-30 21:16 -34.78614 138.77215 9264 ft 285 kts 56°
2026-04-30 21:16 -34.77715 138.79373 9918 ft 288 kts 59°
2026-04-30 21:17 -34.76823 138.81588 10412 ft 297 kts 60°
2026-04-30 21:17 -34.75883 138.83924 10691 ft 314 kts 60°
2026-04-30 21:17 -34.74909 138.86340 10945 ft 331 kts 60°
2026-04-30 21:17 -34.73864 138.88931 11208 ft 349 kts 60°
2026-04-30 21:18 -34.72755 138.91671 11474 ft 366 kts 61°
2026-04-30 21:18 -34.71604 138.94517 11723 ft 383 kts 61°
2026-04-30 21:18 -34.70405 138.97478 12060 ft 397 kts 61°
2026-04-30 21:18 -34.69168 139.00536 12564 ft 406 kts 61°
2026-04-30 21:19 -34.68335 139.02593 12942 ft 410 kts 62°
2026-04-30 21:19 -34.66651 139.06746 13724 ft 418 kts 62°
2026-04-30 21:19 -34.65774 139.08902 14135 ft 421 kts 62°
2026-04-30 21:19 -34.64046 139.13152 14968 ft 426 kts 62°
2026-04-30 21:20 -34.62730 139.16385 15566 ft 429 kts 62°
2026-04-30 21:20 -34.61851 139.18542 15951 ft 432 kts 62°
2026-04-30 21:20 -34.60509 139.21831 16515 ft 436 kts 62°
2026-04-30 21:20 -34.59155 139.25145 17064 ft 440 kts 62°
2026-04-30 21:21 -34.57830 139.28514 17599 ft 444 kts 64°
2026-04-30 21:21 -34.56605 139.31976 18126 ft 448 kts 65°
2026-04-30 21:21 -34.54251 139.39065 19163 ft 456 kts 67°
2026-04-30 21:22 -34.53101 139.42652 19661 ft 459 kts 67°
2026-04-30 21:22 -34.49616 139.53636 21049 ft 472 kts 66°
2026-04-30 21:23 -34.48442 139.57340 21382 ft 478 kts 66°
2026-04-30 21:23 -34.47239 139.61098 21925 ft 479 kts 67°
2026-04-30 21:23 -34.44823 139.68670 22855 ft 483 kts 67°
2026-04-30 21:24 -34.43605 139.72486 23239 ft 487 kts 67°
2026-04-30 21:24 -34.42377 139.76324 23600 ft 491 kts 67°
2026-04-30 21:24 -34.41134 139.80204 23959 ft 495 kts 67°
2026-04-30 21:24 -34.39886 139.84095 24333 ft 498 kts 67°
2026-04-30 21:25 -34.37362 139.91951 25101 ft 503 kts 67°
2026-04-30 21:25 -34.36089 139.95906 25457 ft 506 kts 67°
2026-04-30 21:25 -34.34803 139.99894 25792 ft 510 kts 66°
2026-04-30 21:26 -34.32212 140.07914 26438 ft 517 kts 66°
2026-04-30 21:26 -34.30900 140.11966 26775 ft 520 kts 66°
2026-04-30 21:27 -34.28241 140.20164 27477 ft 526 kts 66°
2026-04-30 21:27 -34.26900 140.24292 27828 ft 529 kts 66°
2026-04-30 21:27 -34.25550 140.28438 28127 ft 534 kts 67°
2026-04-30 21:28 -34.22801 140.36865 28824 ft 542 kts 67°
2026-04-30 21:28 -34.21413 140.41109 29271 ft 544 kts 67°
2026-04-30 21:28 -34.18636 140.49594 30193 ft 546 kts 67°
2026-04-30 21:29 -34.17235 140.53865 30665 ft 546 kts 67°
2026-04-30 21:29 -34.13027 140.66658 32077 ft 545 kts 67°
2026-04-30 21:30 -34.10219 140.75167 33011 ft 544 kts 67°
2026-04-30 21:31 -34.06046 140.87758 34451 ft 539 kts 67°
2026-04-30 21:31 -34.03261 140.96138 34866 ft 535 kts 67°
2026-04-30 21:32 -33.99123 141.08540 34901 ft 526 kts 66°
2026-04-30 21:32 -33.96380 141.16735 34916 ft 528 kts 66°
2026-04-30 21:33 -33.92247 141.29039 34904 ft 527 kts 66°
2026-04-30 21:34 -33.89494 141.37206 34915 ft 531 kts 66°
2026-04-30 21:34 -33.85327 141.49537 34904 ft 529 kts 66°
2026-04-30 21:35 -33.82541 141.57755 34915 ft 530 kts 66°
2026-04-30 21:35 -33.79746 141.65973 34913 ft 530 kts 66°
2026-04-30 21:36 -33.76969 141.74123 34904 ft 530 kts 66°
2026-04-30 21:37 -33.71466 141.90536 34906 ft 530 kts 68°
2026-04-30 21:37 -33.68743 141.98788 34919 ft 530 kts 66°
2026-04-30 21:38 -33.66030 142.06967 34904 ft 528 kts 67°
2026-04-30 21:38 -33.63308 142.15152 34917 ft 531 kts 67°
2026-04-30 21:39 -33.60572 142.23375 34911 ft 531 kts 67°
2026-04-30 21:39 -33.57828 142.31592 34906 ft 529 kts 68°
2026-04-30 21:40 -33.55083 142.39791 34918 ft 529 kts 68°
2026-04-30 21:40 -33.52330 142.47993 34907 ft 529 kts 68°
2026-04-30 21:41 -33.49575 142.56178 34910 ft 529 kts 68°
2026-04-30 21:41 -33.46836 142.64297 34917 ft 530 kts 67°
2026-04-30 21:42 -33.44071 142.72466 34904 ft 529 kts 67°
2026-04-30 21:42 -33.41300 142.80635 34916 ft 529 kts 68°
2026-04-30 21:43 -33.38526 142.88792 34912 ft 529 kts 68°
2026-04-30 21:43 -33.35747 142.96946 34906 ft 529 kts 67°
2026-04-30 21:44 -33.32958 143.05106 34919 ft 530 kts 67°
2026-04-30 21:44 -33.30165 143.13256 34905 ft 529 kts 67°
2026-04-30 21:45 -33.27369 143.21394 34913 ft 530 kts 67°
2026-04-30 21:45 -33.24576 143.29505 34919 ft 530 kts 67°
2026-04-30 21:46 -33.21766 143.37645 34898 ft 525 kts 67°
2026-04-30 21:46 -33.18978 143.45692 34920 ft 529 kts 67°
2026-04-30 21:47 -33.16167 143.53796 35109 ft 526 kts 67°
2026-04-30 21:47 -33.14761 143.57840 35233 ft 529 kts 67°
2026-04-30 21:47 -33.13347 143.61905 35248 ft 529 kts 67°
2026-04-30 21:48 -33.10521 143.70006 35260 ft 527 kts 67°
2026-04-30 21:48 -33.07704 143.78062 35271 ft 527 kts 67°
2026-04-30 21:49 -33.04913 143.86039 35263 ft 521 kts 66°
2026-04-30 21:49 -33.02106 143.94023 35261 ft 519 kts 66°
2026-04-30 21:50 -32.99146 144.01812 35274 ft 519 kts 60°
2026-04-30 21:50 -32.95399 144.09152 35264 ft 517 kts 56°
2026-04-30 21:51 -32.91515 144.16397 35263 ft 517 kts 56°
2026-04-30 21:51 -32.87679 144.23650 35272 ft 519 kts 56°
2026-04-30 21:52 -32.83861 144.30934 35260 ft 517 kts 56°
2026-04-30 21:52 -32.80077 144.38162 35273 ft 509 kts 56°
2026-04-30 21:53 -32.78230 144.41685 35277 ft 496 kts 56°
2026-04-30 21:53 -32.76445 144.45085 35246 ft 488 kts 56°
2026-04-30 21:53 -32.72808 144.51988 35263 ft 498 kts 55°
2026-04-30 21:54 -32.69082 144.59046 35275 ft 510 kts 55°
2026-04-30 21:54 -32.65297 144.66212 35259 ft 511 kts 55°
2026-04-30 21:55 -32.61527 144.73341 35264 ft 510 kts 55°
2026-04-30 21:55 -32.57744 144.80478 35271 ft 510 kts 55°
2026-04-30 21:56 -32.53984 144.87556 35259 ft 510 kts 55°
2026-04-30 21:56 -32.50195 144.94676 35269 ft 510 kts 55°
2026-04-30 21:57 -32.46402 145.01788 35268 ft 510 kts 55°
2026-04-30 21:57 -32.42607 145.08891 35259 ft 510 kts 55°
2026-04-30 21:58 -32.38813 145.15981 35272 ft 510 kts 55°
2026-04-30 21:58 -32.35005 145.23081 35263 ft 510 kts 55°
2026-04-30 21:59 -32.31220 145.30127 35264 ft 510 kts 55°
2026-04-30 22:00 -32.25495 145.40756 35265 ft 511 kts 55°
2026-04-30 22:00 -32.19761 145.51375 35269 ft 510 kts 55°
2026-04-30 22:01 -32.15956 145.58403 35268 ft 511 kts 55°
2026-04-30 22:01 -32.12105 145.65505 35259 ft 510 kts 55°
2026-04-30 22:02 -32.08300 145.72509 35272 ft 511 kts 55°
2026-04-30 22:02 -32.04458 145.79565 35263 ft 511 kts 55°
2026-04-30 22:03 -32.01264 145.85424 35261 ft 510 kts 54°
2026-04-30 22:03 -31.97419 145.92465 35273 ft 511 kts 54°
2026-04-30 22:04 -31.93572 145.99493 35261 ft 511 kts 54°
2026-04-30 22:05 -31.87796 146.10027 35272 ft 510 kts 54°
2026-04-30 22:05 -31.83931 146.17056 35263 ft 511 kts 54°
2026-04-30 22:06 -31.80073 146.24062 35263 ft 510 kts 54°
2026-04-30 22:06 -31.74298 146.34524 35266 ft 511 kts 54°
2026-04-30 22:07 -31.70426 146.41522 35261 ft 510 kts 54°
2026-04-30 22:07 -31.66554 146.48509 35274 ft 510 kts 54°
2026-04-30 22:08 -31.62734 146.55392 35253 ft 501 kts 54°
2026-04-30 22:08 -31.58877 146.62320 35279 ft 511 kts 54°
2026-04-30 22:09 -31.55005 146.69268 35262 ft 511 kts 54°
2026-04-30 22:09 -31.51125 146.76221 35264 ft 510 kts 54°
2026-04-30 22:10 -31.47229 146.83188 35272 ft 511 kts 54°
2026-04-30 22:10 -31.43325 146.90155 35251 ft 511 kts 54°
2026-04-30 22:11 -31.37508 147.00516 35156 ft 508 kts 54°
2026-04-30 22:12 -31.33609 147.07442 35145 ft 510 kts 54°
2026-04-30 22:12 -31.29707 147.14365 35146 ft 510 kts 54°
2026-04-30 22:13 -31.25790 147.21299 35154 ft 510 kts 54°
2026-04-30 22:13 -31.21904 147.28167 35142 ft 509 kts 54°
2026-04-30 22:14 -31.17994 147.35067 35151 ft 509 kts 54°
2026-04-30 22:14 -31.14075 147.41968 35150 ft 510 kts 54°
2026-04-30 22:15 -31.10150 147.48869 35141 ft 509 kts 54°
2026-04-30 22:15 -31.06230 147.55748 35154 ft 509 kts 54°
2026-04-30 22:16 -31.02297 147.62638 35145 ft 510 kts 54°
2026-04-30 22:17 -30.94432 147.76382 35154 ft 510 kts 53°
2026-04-30 22:17 -30.88540 147.86645 35143 ft 509 kts 53°
2026-04-30 22:18 -30.82618 147.96932 35150 ft 510 kts 53°
2026-04-30 22:19 -30.76684 148.07213 35148 ft 509 kts 53°
2026-04-30 22:20 -30.70771 148.17429 35145 ft 510 kts 53°
2026-04-30 22:20 -30.64830 148.27670 35152 ft 509 kts 53°
2026-04-30 22:21 -30.60855 148.34505 35148 ft 510 kts 53°
2026-04-30 22:21 -30.56878 148.41334 35142 ft 509 kts 53°
2026-04-30 22:22 -30.52927 148.48105 35155 ft 510 kts 53°
2026-04-30 22:22 -30.48949 148.54909 35135 ft 511 kts 53°
2026-04-30 22:23 -30.44914 148.61801 35172 ft 518 kts 53°
2026-04-30 22:23 -30.40892 148.68666 35187 ft 509 kts 53°
2026-04-30 22:24 -30.36943 148.75387 35205 ft 509 kts 53°
2026-04-30 22:24 -30.32944 148.82178 35218 ft 510 kts 53°
2026-04-30 22:25 -30.28954 148.88948 35213 ft 510 kts 53°
2026-04-30 22:25 -30.24948 148.95734 35224 ft 510 kts 53°
2026-04-30 22:26 -30.18943 149.05881 35213 ft 510 kts 53°
2026-04-30 22:27 -30.14944 149.12628 35225 ft 509 kts 53°
2026-04-30 22:27 -30.08925 149.22756 35225 ft 510 kts 53°
2026-04-30 22:28 -30.02890 149.32888 35233 ft 509 kts 53°
2026-04-30 22:29 -29.94857 149.46334 35226 ft 509 kts 53°
2026-04-30 22:31 -29.80759 149.69826 35238 ft 509 kts 53°
2026-04-30 22:32 -29.70643 149.86597 35245 ft 512 kts 53°
2026-04-30 22:33 -29.64432 149.96849 35237 ft 526 kts 54°
2026-04-30 22:33 -29.60268 150.03715 35244 ft 529 kts 54°
2026-04-30 22:35 -29.50415 150.21497 35262 ft 528 kts 60°
2026-04-30 22:36 -29.41493 150.39949 35269 ft 529 kts 61°
2026-04-30 22:37 -29.34389 150.54707 35272 ft 529 kts 60°
2026-04-30 22:38 -29.27244 150.69484 35273 ft 533 kts 60°
2026-04-30 22:39 -29.21881 150.80531 35257 ft 526 kts 60°
2026-04-30 22:40 -29.11191 151.02482 35264 ft 527 kts 60°
2026-04-30 22:41 -29.02224 151.20799 35262 ft 526 kts 60°
2026-04-30 22:43 -28.91466 151.42667 35267 ft 527 kts 60°
2026-04-30 22:44 -28.84270 151.57213 35257 ft 526 kts 59°
2026-04-30 22:45 -28.74451 151.69498 35266 ft 525 kts 43°
2026-04-30 22:45 -28.69198 151.75273 35259 ft 524 kts 43°
2026-04-30 22:47 -28.54383 151.91912 35167 ft 529 kts 43°
2026-04-30 22:48 -28.43036 152.04650 35172 ft 530 kts 43°
2026-04-30 22:49 -28.28161 152.21284 35166 ft 530 kts 43°
2026-04-30 22:51 -28.12446 152.38783 35162 ft 528 kts 42°
2026-04-30 22:52 -28.04572 152.47520 35138 ft 527 kts 42°
2026-04-30 22:53 -27.93999 152.59004 35153 ft 521 kts 39°
2026-04-30 22:53 -27.85836 152.66944 35132 ft 519 kts 38°
2026-04-30 22:55 -27.71907 152.80278 35141 ft 527 kts 38°
2026-04-30 22:56 -27.60721 152.90969 35121 ft 526 kts 38°
2026-04-30 22:57 -27.46764 153.04265 35119 ft 526 kts 38°
2026-04-30 22:58 -27.34729 153.13276 35101 ft 516 kts 15°
2026-04-30 22:59 -27.13672 153.17407 35115 ft 507 kts
2026-05-01 07:23 38.11757 -178.78655 34584 ft 594 kts
2026-05-01 07:23 38.19567 -178.75534 34739 ft 575 kts 16°
2026-05-01 07:24 38.23308 -178.74057 34588 ft 550 kts 17°
2026-05-01 07:24 38.26886 -178.72508 34403 ft 537 kts
2026-05-01 07:24 38.30426 -178.71001 34534 ft 538 kts
2026-05-01 07:25 38.37680 -178.68069 34582 ft 555 kts
2026-05-01 07:25 38.45160 -178.65050 34599 ft 574 kts
2026-05-01 07:26 38.52906 -178.61882 34589 ft 593 kts
2026-05-01 07:26 38.60791 -178.58616 34578 ft 595 kts
2026-05-01 07:27 38.68606 -178.55367 34587 ft 594 kts
2026-05-01 07:27 38.76496 -178.52098 34591 ft 595 kts
2026-05-01 07:28 38.84372 -178.48836 34579 ft 594 kts
2026-05-01 07:28 38.92206 -178.45582 34591 ft 594 kts
2026-05-01 07:29 39.00080 -178.42303 34587 ft 595 kts
2026-05-01 07:29 39.07954 -178.39016 34581 ft 594 kts
2026-05-01 07:30 39.15839 -178.35716 34593 ft 594 kts
2026-05-01 07:30 39.23654 -178.32439 34582 ft 595 kts
2026-05-01 07:31 39.31524 -178.29131 34586 ft 594 kts
2026-05-01 07:32 39.51175 -178.20835 34584 ft 595 kts
2026-05-01 07:33 39.62968 -178.15833 34587 ft 595 kts
2026-05-01 07:33 39.74780 -178.10805 34589 ft 594 kts
2026-05-01 07:34 39.86605 -178.05753 34582 ft 595 kts
2026-05-01 07:35 39.94426 -178.02399 34585 ft 596 kts
2026-05-01 07:35 40.02254 -177.98640 34591 ft 602 kts 10°
2026-05-01 07:36 40.10049 -177.94513 34580 ft 604 kts 12°
2026-05-01 07:36 40.17789 -177.90227 34591 ft 605 kts 12°
2026-05-01 07:37 40.29382 -177.83764 34581 ft 605 kts 12°
2026-05-01 07:37 40.35831 -177.80174 34587 ft 605 kts 12°
2026-05-01 07:38 40.43577 -177.75858 34591 ft 605 kts 12°
2026-05-01 07:38 40.51344 -177.71555 34664 ft 591 kts 21°
2026-05-01 07:39 40.55037 -177.69549 34593 ft 563 kts 22°
2026-05-01 07:39 40.58593 -177.67485 34352 ft 549 kts 12°
2026-05-01 07:39 40.65616 -177.63471 34573 ft 556 kts 11°
2026-05-01 07:40 40.72833 -177.59465 34596 ft 575 kts 11°
2026-05-01 07:40 40.80315 -177.55275 34595 ft 594 kts 12°
2026-05-01 07:41 40.88019 -177.50916 34583 ft 606 kts 12°
2026-05-01 07:42 40.99670 -177.44266 34587 ft 605 kts 13°
2026-05-01 07:42 41.07356 -177.39886 34590 ft 606 kts 12°
2026-05-01 07:43 41.15106 -177.35466 34579 ft 606 kts 12°
2026-05-01 07:43 41.26736 -177.28834 34592 ft 610 kts 16°
2026-05-01 07:44 41.42180 -177.19933 34587 ft 609 kts 17°
2026-05-01 07:45 41.49960 -177.15438 34589 ft 612 kts 17°
2026-05-01 07:45 41.57772 -177.10912 34580 ft 611 kts 17°
2026-05-01 07:46 41.65572 -177.06384 34592 ft 610 kts 17°
2026-05-01 07:47 41.77231 -176.99597 34581 ft 611 kts 17°
2026-05-01 07:47 41.84939 -176.95091 34587 ft 600 kts 18°
2026-05-01 07:48 41.96486 -176.88324 34586 ft 604 kts 18°
2026-05-01 07:48 42.04149 -176.83816 34583 ft 603 kts 18°
2026-05-01 07:49 42.15685 -176.77009 34588 ft 604 kts 18°
2026-05-01 07:50 42.23372 -176.72458 34581 ft 603 kts 18°
2026-05-01 07:50 42.35002 -176.65553 34589 ft 602 kts 18°
2026-05-01 07:51 42.42607 -176.61014 34582 ft 602 kts 18°
2026-05-01 07:52 42.54135 -176.54123 34587 ft 604 kts 18°
2026-05-01 07:52 42.61795 -176.49526 34581 ft 603 kts 18°
2026-05-01 07:53 42.73315 -176.42589 34589 ft 604 kts 18°
2026-05-01 07:53 42.80992 -176.37966 34611 ft 594 kts 22°
2026-05-01 07:54 42.88215 -176.33623 34071 ft 542 kts 24°
2026-05-01 07:55 42.98537 -176.27290 33092 ft 561 kts 18°
2026-05-01 07:55 43.05839 -176.22879 32760 ft 591 kts 19°
2026-05-01 07:56 43.17340 -176.15842 33351 ft 613 kts 19°
2026-05-01 07:56 43.25135 -176.11042 34271 ft 612 kts 19°
2026-05-01 07:57 43.29017 -176.08649 34484 ft 604 kts 19°
2026-05-01 07:58 43.44111 -175.99328 34583 ft 596 kts 19°
2026-05-01 07:59 43.59256 -175.89935 34581 ft 596 kts 19°
2026-05-01 08:00 43.81900 -175.75786 34581 ft 593 kts 20°
2026-05-01 08:01 43.96946 -175.66321 34592 ft 598 kts 20°
2026-05-01 08:02 44.08301 -175.59136 34759 ft 596 kts 20°
2026-05-01 08:03 44.19669 -175.51917 34785 ft 597 kts 20°
2026-05-01 08:03 44.30915 -175.44746 34786 ft 592 kts 20°
2026-05-01 08:04 44.45884 -175.35153 34792 ft 592 kts 20°
2026-05-01 08:05 44.57071 -175.27948 34780 ft 592 kts 20°
2026-05-01 08:06 44.68300 -175.20685 34787 ft 594 kts 20°
2026-05-01 08:07 44.83353 -175.10903 34788 ft 593 kts 21°
2026-05-01 08:08 44.94588 -175.03502 34781 ft 596 kts 23°
2026-05-01 08:09 45.08889 -174.91913 34843 ft 574 kts 30°
2026-05-01 08:09 45.15702 -174.85689 34803 ft 590 kts 31°
2026-05-01 08:10 45.29643 -174.72782 34779 ft 600 kts 31°
2026-05-01 08:11 45.43674 -174.59771 34786 ft 602 kts 31°
2026-05-01 08:12 45.54190 -174.49965 34789 ft 601 kts 31°
2026-05-01 08:13 45.64660 -174.40162 34781 ft 602 kts 31°
2026-05-01 08:13 45.75157 -174.30287 34791 ft 601 kts 31°
2026-05-01 08:14 45.82151 -174.23682 34784 ft 597 kts 31°
2026-05-01 08:14 45.89097 -174.17103 34787 ft 601 kts 31°
2026-05-01 08:15 45.99586 -174.07128 34783 ft 602 kts 31°
2026-05-01 08:16 46.06551 -174.00480 34786 ft 600 kts 32°
2026-05-01 08:16 46.13517 -173.93810 34791 ft 602 kts 32°
2026-05-01 08:17 46.20496 -173.87107 34779 ft 601 kts 32°
2026-05-01 08:17 46.27416 -173.80440 34790 ft 600 kts 32°
2026-05-01 08:18 46.34352 -173.73740 34786 ft 596 kts 32°
2026-05-01 08:19 46.48246 -173.60249 34792 ft 603 kts 32°
2026-05-01 08:19 46.55200 -173.53465 34779 ft 603 kts 32°
2026-05-01 08:20 46.60986 -173.47804 34789 ft 602 kts 32°
2026-05-01 08:20 46.67942 -173.40980 34788 ft 603 kts 32°
2026-05-01 08:21 46.74886 -173.34146 34780 ft 603 kts 32°
2026-05-01 08:21 46.81820 -173.27299 34790 ft 596 kts 32°
2026-05-01 08:22 46.88689 -173.20495 34784 ft 598 kts 32°
2026-05-01 08:22 46.95630 -173.13600 34788 ft 604 kts 32°
2026-05-01 08:23 47.02579 -173.06673 34789 ft 604 kts 33°
2026-05-01 08:23 47.09486 -172.99766 34780 ft 604 kts 33°
2026-05-01 08:24 47.16357 -172.92875 34661 ft 581 kts 33°
2026-05-01 08:24 47.19627 -172.89585 34367 ft 560 kts 33°
2026-05-01 08:24 47.22822 -172.86360 34499 ft 556 kts 33°
2026-05-01 08:24 47.26024 -172.83129 34671 ft 560 kts 33°
2026-05-01 08:25 47.29252 -172.79874 34776 ft 566 kts 33°
2026-05-01 08:25 47.35838 -172.73214 34798 ft 580 kts 33°
2026-05-01 08:26 47.42577 -172.66371 34783 ft 596 kts 33°
2026-05-01 08:26 47.49501 -172.59318 34785 ft 606 kts 33°
2026-05-01 08:27 47.56387 -172.52277 34788 ft 605 kts 33°
2026-05-01 08:27 47.63366 -172.45118 34785 ft 605 kts 33°
2026-05-01 08:28 47.70237 -172.38048 34786 ft 605 kts 33°
2026-05-01 08:28 47.77149 -172.30914 34791 ft 605 kts 33°
2026-05-01 08:29 47.84004 -172.23815 34777 ft 596 kts 33°
2026-05-01 08:29 47.90854 -172.16699 34793 ft 605 kts 33°
2026-05-01 08:30 47.97792 -172.09466 34785 ft 607 kts 33°
2026-05-01 08:30 48.04705 -172.02235 34783 ft 605 kts 33°
2026-05-01 08:31 48.11558 -171.95042 34793 ft 606 kts 34°
2026-05-01 08:31 48.18478 -171.87756 34780 ft 607 kts 34°
2026-05-01 08:32 48.25360 -171.80484 34788 ft 605 kts 34°
2026-05-01 08:32 48.32200 -171.73231 34786 ft 595 kts 34°
2026-05-01 08:33 48.38933 -171.66070 34783 ft 601 kts 33°
2026-05-01 08:33 48.45785 -171.58762 34791 ft 605 kts 34°
2026-05-01 08:34 48.52652 -171.51410 34779 ft 603 kts 34°
2026-05-01 08:34 48.59499 -171.44053 34791 ft 603 kts 34°
2026-05-01 08:35 48.66329 -171.36690 34785 ft 604 kts 34°
2026-05-01 08:35 48.73131 -171.29332 34782 ft 603 kts 34°
2026-05-01 08:36 48.79965 -171.21915 34796 ft 600 kts 34°
2026-05-01 08:36 48.86713 -171.14564 34780 ft 599 kts 34°
2026-05-01 08:37 48.93513 -171.07135 34793 ft 601 kts 34°
2026-05-01 08:37 49.00329 -170.99946 34792 ft 599 kts 30°
2026-05-01 08:38 49.07574 -170.93714 34779 ft 598 kts 25°
2026-05-01 08:38 49.14943 -170.87878 34787 ft 596 kts 24°
2026-05-01 08:39 49.22300 -170.82034 34691 ft 578 kts 27°
2026-05-01 08:39 49.25800 -170.79202 34456 ft 560 kts 25°
2026-05-01 08:39 49.29182 -170.76436 34625 ft 560 kts 25°
2026-05-01 08:39 49.32633 -170.73626 34752 ft 564 kts 25°
2026-05-01 08:40 49.39660 -170.67894 34789 ft 579 kts 25°
2026-05-01 08:40 49.46867 -170.62000 34789 ft 593 kts 25°
2026-05-01 08:41 49.54177 -170.55992 34777 ft 594 kts 25°
2026-05-01 08:41 49.61421 -170.50016 34789 ft 593 kts 25°
2026-05-01 08:42 49.68690 -170.44001 34788 ft 594 kts 25°
2026-05-01 08:42 49.75982 -170.37950 34780 ft 593 kts 26°
2026-05-01 08:43 49.83181 -170.31959 34788 ft 581 kts 26°
2026-05-01 08:43 49.90314 -170.25994 34788 ft 583 kts 26°
2026-05-01 08:44 49.97518 -170.19949 34785 ft 591 kts 26°
2026-05-01 08:44 50.04702 -170.13905 34788 ft 591 kts 26°
2026-05-01 08:45 50.11950 -170.07787 34783 ft 591 kts 26°
2026-05-01 08:45 50.19173 -170.01667 34789 ft 590 kts 26°
2026-05-01 08:46 50.26397 -169.95525 34785 ft 591 kts 26°
2026-05-01 08:46 50.33569 -169.89412 34780 ft 580 kts 27°
2026-05-01 08:47 50.40625 -169.83365 34791 ft 579 kts 27°
2026-05-01 08:47 50.47719 -169.77271 34787 ft 582 kts 27°
2026-05-01 08:48 50.54765 -169.71197 34780 ft 581 kts 27°
2026-05-01 08:48 50.61921 -169.65006 34794 ft 587 kts 27°
2026-05-01 08:49 50.69092 -169.58782 34781 ft 588 kts 27°
2026-05-01 08:49 50.76263 -169.52536 34787 ft 587 kts 27°
2026-05-01 08:50 50.83343 -169.46351 34785 ft 577 kts 27°
2026-05-01 08:50 50.90333 -169.40216 34784 ft 578 kts 28°
2026-05-01 08:51 50.97365 -169.34025 34792 ft 578 kts 28°
2026-05-01 08:51 51.04407 -169.27804 34780 ft 579 kts 28°
2026-05-01 08:52 51.11440 -169.21570 34789 ft 578 kts 28°
2026-05-01 08:52 51.18526 -169.15265 34791 ft 585 kts 27°
2026-05-01 08:53 51.25628 -169.08925 34779 ft 585 kts 28°
2026-05-01 08:53 51.32725 -169.02568 34791 ft 583 kts 28°
2026-05-01 08:54 51.36209 -168.99443 34763 ft 562 kts 28°
2026-05-01 08:54 51.39526 -168.96458 34452 ft 537 kts 28°
2026-05-01 08:54 51.42712 -168.93577 33841 ft 527 kts 27°
2026-05-01 08:54 51.45921 -168.90671 33387 ft 537 kts 27°
2026-05-01 08:55 51.49236 -168.87679 32991 ft 558 kts 27°
2026-05-01 08:55 51.52675 -168.84573 32933 ft 572 kts 27°
2026-05-01 08:55 51.56167 -168.81410 33317 ft 578 kts 27°
2026-05-01 08:55 51.59685 -168.78214 33784 ft 580 kts 28°
2026-05-01 08:56 51.63192 -168.75019 34016 ft 579 kts 28°
2026-05-01 08:56 51.66699 -168.71816 34163 ft 575 kts 28°
2026-05-01 08:56 51.73667 -168.65433 34186 ft 581 kts 27°
2026-05-01 08:57 51.80696 -168.58981 34197 ft 581 kts 27°
2026-05-01 08:57 51.87733 -168.52498 34198 ft 581 kts 27°
2026-05-01 08:58 51.94751 -168.46007 34189 ft 581 kts 28°
2026-05-01 08:58 52.01768 -168.39495 34200 ft 580 kts 28°
2026-05-01 08:59 52.08734 -168.33005 34193 ft 582 kts 28°
2026-05-01 08:59 52.15807 -168.26392 34195 ft 580 kts 28°
2026-05-01 09:00 52.22825 -168.19804 34200 ft 587 kts 27°
2026-05-01 09:00 52.29860 -168.13179 34189 ft 586 kts 28°
2026-05-01 09:01 52.35739 -168.07623 34196 ft 585 kts 28°
2026-05-01 09:01 52.42805 -168.00923 34200 ft 586 kts 28°
2026-05-01 09:02 52.49852 -167.94214 34189 ft 586 kts 28°
2026-05-01 09:02 52.56907 -167.87473 34200 ft 585 kts 28°
2026-05-01 09:03 52.63947 -167.80721 34195 ft 586 kts 28°
2026-05-01 09:03 52.71011 -167.73921 34192 ft 586 kts 28°
2026-05-01 09:04 52.78046 -167.67120 34203 ft 589 kts 28°
2026-05-01 09:04 52.85134 -167.60246 34190 ft 589 kts 28°
2026-05-01 09:05 52.92200 -167.53367 34197 ft 588 kts 28°
2026-05-01 09:05 52.99229 -167.46497 34199 ft 590 kts 28°
2026-05-01 09:06 53.06295 -167.39563 34188 ft 589 kts 28°
2026-05-01 09:06 53.13351 -167.32613 34202 ft 588 kts 28°
2026-05-01 09:07 53.20396 -167.25646 34194 ft 590 kts 28°
2026-05-01 09:07 53.27462 -167.18631 34192 ft 589 kts 28°
2026-05-01 09:08 53.34514 -167.11604 34202 ft 589 kts 28°
2026-05-01 09:08 53.41520 -167.04596 34190 ft 590 kts 28°
2026-05-01 09:09 53.45027 -167.01073 34339 ft 578 kts 28°
2026-05-01 09:09 53.48472 -166.97605 34452 ft 572 kts 28°
2026-05-01 09:09 53.51927 -166.94130 34300 ft 584 kts 28°
2026-05-01 09:09 53.55418 -166.90612 34217 ft 589 kts 28°
2026-05-01 09:10 53.62457 -166.83490 34203 ft 589 kts 28°
2026-05-01 09:10 53.69449 -166.76384 34190 ft 590 kts 28°
2026-05-01 09:11 53.76483 -166.69207 34172 ft 589 kts 29°
2026-05-01 09:11 53.83475 -166.62012 34157 ft 590 kts 30°
2026-05-01 09:12 53.89684 -166.52880 34180 ft 591 kts 46°
2026-05-01 09:12 53.95067 -166.42390 34167 ft 592 kts 52°
2026-05-01 09:13 53.99882 -166.31064 34164 ft 590 kts 58°
2026-05-01 09:13 54.04368 -166.19344 34172 ft 589 kts 59°
2026-05-01 09:14 54.08802 -166.07576 34164 ft 590 kts 59°
2026-05-01 09:14 54.13233 -165.95882 34170 ft 589 kts 59°
2026-05-01 09:15 54.17687 -165.84134 34172 ft 590 kts 59°
2026-05-01 09:15 54.22145 -165.72325 34162 ft 590 kts 59°
2026-05-01 09:16 54.26549 -165.60599 34174 ft 589 kts 59°
2026-05-01 09:17 54.33182 -165.42822 34161 ft 590 kts 59°
2026-05-01 09:17 54.39778 -165.25018 34172 ft 590 kts 60°
2026-05-01 09:18 54.46343 -165.07172 34163 ft 589 kts 60°
2026-05-01 09:19 54.52887 -164.89256 34166 ft 590 kts 60°
2026-05-01 09:20 54.59382 -164.71342 34169 ft 589 kts 60°
2026-05-01 09:21 54.68031 -164.47283 34160 ft 589 kts 60°
2026-05-01 09:21 54.74480 -164.29189 34173 ft 589 kts 61°
2026-05-01 09:22 54.83024 -164.05012 34179 ft 588 kts 61°
2026-05-01 09:23 54.89412 -163.86778 34171 ft 589 kts 61°
2026-05-01 09:24 54.95753 -163.68541 34191 ft 587 kts 60°
2026-05-01 09:24 54.99859 -163.56685 34253 ft 565 kts 62°
2026-05-01 09:25 55.03821 -163.45153 34219 ft 540 kts 61°
2026-05-01 09:25 55.07597 -163.34107 34197 ft 529 kts 61°
2026-05-01 09:26 55.09489 -163.28559 34195 ft 535 kts 61°
2026-05-01 09:26 55.15214 -163.11704 34203 ft 539 kts 61°
2026-05-01 09:27 55.20898 -162.94855 34191 ft 537 kts 61°
2026-05-01 09:28 55.24684 -162.83565 34202 ft 538 kts 61°
2026-05-01 09:28 55.28982 -162.72858 34150 ft 536 kts 48°
2026-05-01 09:29 55.37660 -162.60392 34209 ft 541 kts 38°
2026-05-01 09:30 55.46311 -162.47644 34196 ft 540 kts 41°
2026-05-01 09:30 55.54764 -162.34461 34215 ft 540 kts 42°
2026-05-01 09:31 55.60398 -162.25614 34207 ft 539 kts 42°
2026-05-01 09:32 55.68818 -162.12356 34227 ft 543 kts 42°
2026-05-01 09:32 55.77272 -161.98986 34240 ft 542 kts 42°
2026-05-01 09:33 55.82893 -161.90059 34257 ft 538 kts 42°
2026-05-01 09:34 55.91230 -161.76766 34300 ft 539 kts 42°
2026-05-01 09:34 55.99634 -161.63291 34332 ft 542 kts 43°
2026-05-01 09:35 56.08033 -161.49738 34357 ft 541 kts 43°
2026-05-01 09:36 56.13587 -161.40731 34387 ft 542 kts 43°
2026-05-01 09:36 56.19163 -161.31653 34464 ft 539 kts 43°
2026-05-01 09:37 56.24739 -161.22537 34480 ft 543 kts 43°
2026-05-01 09:37 56.33065 -161.08852 34616 ft 537 kts 43°
2026-05-01 09:38 56.41369 -160.95122 34576 ft 538 kts 43°
2026-05-01 09:39 56.49591 -160.81442 34605 ft 538 kts 43°
2026-05-01 09:39 56.55081 -160.72259 34598 ft 538 kts 43°
2026-05-01 09:40 56.63331 -160.58392 34576 ft 540 kts 43°
2026-05-01 09:41 56.68854 -160.49058 34580 ft 540 kts 43°
2026-05-01 09:41 56.77082 -160.35082 34538 ft 539 kts 44°
2026-05-01 09:42 56.82546 -160.25767 34535 ft 541 kts 44°
2026-05-01 09:43 56.93538 -160.06912 34333 ft 540 kts 44°
2026-05-01 09:43 56.99001 -159.97484 34320 ft 540 kts 44°
2026-05-01 09:44 57.06296 -159.84836 34308 ft 541 kts 44°
2026-05-01 09:45 57.11768 -159.75300 34319 ft 541 kts 44°
2026-05-01 09:45 57.20839 -159.59403 34307 ft 541 kts 44°
2026-05-01 09:46 57.25393 -159.51378 34318 ft 540 kts 44°
2026-05-01 09:46 57.30833 -159.41759 34314 ft 541 kts 45°
2026-05-01 09:47 57.36270 -159.32098 34308 ft 541 kts 45°
2026-05-01 09:47 57.41681 -159.22438 34320 ft 541 kts 45°
2026-05-01 09:48 57.47096 -159.12734 34310 ft 542 kts 45°
2026-05-01 09:48 57.52505 -159.02998 34319 ft 541 kts 45°
2026-05-01 09:49 57.57916 -158.93217 34333 ft 542 kts 45°
2026-05-01 09:49 57.63330 -158.83387 34325 ft 542 kts 45°
2026-05-01 09:50 57.68712 -158.73571 34324 ft 541 kts 45°
2026-05-01 09:50 57.74094 -158.63714 34337 ft 539 kts 45°
2026-05-01 09:51 57.79408 -158.53940 34332 ft 539 kts 46°
2026-05-01 09:51 57.84760 -158.44052 34337 ft 538 kts 46°
2026-05-01 09:52 57.90089 -158.34158 34349 ft 539 kts 46°
2026-05-01 09:52 57.95427 -158.24206 34340 ft 539 kts 46°
2026-05-01 09:53 58.00730 -158.14270 34350 ft 538 kts 46°
2026-05-01 09:53 58.06039 -158.04272 34356 ft 538 kts 46°
2026-05-01 09:54 58.11272 -157.94357 34361 ft 528 kts 45°
2026-05-01 09:54 58.16458 -157.84524 34354 ft 533 kts 46°
2026-05-01 09:55 58.21736 -157.74454 34381 ft 539 kts 47°
2026-05-01 09:55 58.26988 -157.64382 34384 ft 539 kts 47°
2026-05-01 09:56 58.32289 -157.54183 34391 ft 538 kts 47°
2026-05-01 09:56 58.37518 -157.44066 34410 ft 538 kts 47°
2026-05-01 09:57 58.42790 -157.33820 34424 ft 538 kts 47°
2026-05-01 09:57 58.48007 -157.23639 34427 ft 537 kts 47°
2026-05-01 09:58 58.53223 -157.13411 34436 ft 537 kts 48°
2026-05-01 09:58 58.58435 -157.03147 34424 ft 537 kts 48°
2026-05-01 09:59 58.63637 -156.92855 34431 ft 536 kts 48°
2026-05-01 09:59 58.68760 -156.82413 34436 ft 536 kts 50°
2026-05-01 10:00 58.73571 -156.71580 34424 ft 535 kts 52°
2026-05-01 10:00 58.78230 -156.60421 34435 ft 533 kts 55°
2026-05-01 10:01 58.82730 -156.49006 34431 ft 534 kts 56°
2026-05-01 10:01 58.87173 -156.37490 34429 ft 533 kts 56°
2026-05-01 10:02 58.91583 -156.25998 34444 ft 533 kts 56°
2026-05-01 10:02 58.96022 -156.14395 34446 ft 535 kts 56°
2026-05-01 10:03 59.00433 -156.02816 34463 ft 533 kts 56°
2026-05-01 10:03 59.04807 -155.91279 34484 ft 533 kts 56°
2026-05-01 10:04 59.09204 -155.79626 34502 ft 534 kts 57°
2026-05-01 10:04 59.13570 -155.67995 34518 ft 535 kts 57°
2026-05-01 10:05 59.17954 -155.56257 34534 ft 536 kts 57°
2026-05-01 10:05 59.22340 -155.44458 34547 ft 535 kts 57°
2026-05-01 10:06 59.26708 -155.32645 34560 ft 535 kts 57°
2026-05-01 10:06 59.31052 -155.20841 34565 ft 533 kts 57°
2026-05-01 10:07 59.35334 -155.09144 34572 ft 531 kts 57°
2026-05-01 10:07 59.39642 -154.97316 34585 ft 532 kts 57°
2026-05-01 10:08 59.46102 -154.79473 34572 ft 533 kts 57°
2026-05-01 10:09 59.50385 -154.67558 34589 ft 531 kts 56°
2026-05-01 10:09 59.54540 -154.55719 34574 ft 525 kts 58°
2026-05-01 10:10 59.58628 -154.43790 34584 ft 530 kts 59°
2026-05-01 10:10 59.64738 -154.25591 34574 ft 529 kts 59°
2026-05-01 10:11 59.68781 -154.13421 34586 ft 528 kts 59°
2026-05-01 10:11 59.72810 -154.01234 34576 ft 528 kts 59°
2026-05-01 10:12 59.76144 -153.91104 34575 ft 528 kts 59°
2026-05-01 10:13 59.82770 -153.70849 34576 ft 523 kts 60°
2026-05-01 10:13 59.86725 -153.58655 34578 ft 524 kts 60°
2026-05-01 10:14 59.92629 -153.40360 34602 ft 526 kts 60°
2026-05-01 10:14 59.96576 -153.28050 34603 ft 526 kts 60°
2026-05-01 10:15 60.00502 -153.15726 34618 ft 525 kts 60°
2026-05-01 10:15 60.04412 -153.03397 34642 ft 526 kts 59°
2026-05-01 10:16 60.08326 -152.90995 34673 ft 526 kts 60°
2026-05-01 10:17 60.14137 -152.72454 34743 ft 524 kts 60°
2026-05-01 10:17 60.19935 -152.53792 34780 ft 526 kts 59°
2026-05-01 10:18 60.24192 -152.41836 34795 ft 527 kts 47°
2026-05-01 10:18 60.26962 -152.37023 34847 ft 527 kts 37°
2026-05-01 10:19 60.33178 -152.29090 34894 ft 532 kts 32°
2026-05-01 10:19 60.39350 -152.20885 34871 ft 529 kts 35°
2026-05-01 10:20 60.48261 -152.07721 34879 ft 529 kts 38°
2026-05-01 10:20 60.54154 -151.98762 34872 ft 530 kts 38°
2026-05-01 10:21 60.62947 -151.85348 34880 ft 528 kts 38°
2026-05-01 10:22 60.71800 -151.71776 34869 ft 529 kts 38°
2026-05-01 10:23 60.80624 -151.58152 34884 ft 532 kts 39°
2026-05-01 10:23 60.85626 -151.47292 34874 ft 510 kts 56°
2026-05-01 10:23 60.87558 -151.41406 34891 ft 487 kts 59°
2026-05-01 10:24 60.90784 -151.29857 34870 ft 447 kts 64°
2026-05-01 10:24 60.93278 -151.18647 34869 ft 424 kts 70°
2026-05-01 10:25 60.95873 -151.07375 34836 ft 450 kts 60°
2026-05-01 10:25 61.00227 -150.98175 34946 ft 453 kts 41°
2026-05-01 10:26 61.04330 -150.91211 34939 ft 456 kts 41°
2026-05-01 10:27 61.13083 -150.72742 34948 ft 446 kts 61°
2026-05-01 10:27 61.15622 -150.59339 34938 ft 410 kts 82°
2026-05-01 10:28 61.15974 -150.55527 34941 ft 399 kts 84°
2026-05-01 10:28 61.16529 -150.44522 34893 ft 370 kts 92°
2026-05-01 10:28 61.16626 -150.39162 34497 ft 371 kts 94°
2026-05-01 10:29 61.16717 -150.28427 33652 ft 375 kts 95°
2026-05-01 10:29 61.16742 -150.23053 33546 ft 366 kts 95°
2026-05-01 10:30 61.16771 -150.12609 33876 ft 371 kts 96°
2026-05-01 10:30 61.16707 -150.01870 34005 ft 373 kts 98°
2026-05-01 10:31 61.14933 -149.92333 33551 ft 340 kts 138°
2026-05-01 10:31 61.10883 -149.89016 34016 ft 323 kts 181°
2026-05-01 10:32 61.06759 -149.92640 34179 ft 326 kts 209°
2026-05-01 10:32 61.04656 -149.94369 34380 ft 331 kts 196°
2026-05-01 10:32 61.00055 -149.95861 33130 ft 340 kts 188°
2026-05-01 10:33 60.95233 -149.97445 30633 ft 357 kts 194°
2026-05-01 10:33 60.90755 -150.01959 28203 ft 366 kts 212°
2026-05-01 10:34 60.88820 -150.05463 26971 ft 370 kts 221°
2026-05-01 10:34 60.87222 -150.09557 25736 ft 375 kts 230°
2026-05-01 10:34 60.85954 -150.14247 24490 ft 380 kts 239°
2026-05-01 10:35 60.84600 -150.24840 21974 ft 390 kts 256°
2026-05-01 10:35 60.84563 -150.30420 20735 ft 396 kts 265°
2026-05-01 10:35 60.84957 -150.36050 19486 ft 403 kts 274°
2026-05-01 10:35 60.85780 -150.41607 18242 ft 410 kts 283°
2026-05-01 10:36 60.88634 -150.51949 15715 ft 420 kts 301°
2026-05-01 10:36 60.90583 -150.56412 14465 ft 422 kts 310°
2026-05-01 10:36 60.92885 -150.60147 13203 ft 423 kts 323°
2026-05-01 10:37 60.95475 -150.62887 11961 ft 419 kts 336°
2026-05-01 10:37 61.01019 -150.65123 9479 ft 396 kts
2026-05-01 10:37 61.03723 -150.64734 8251 ft 381 kts
2026-05-01 10:38 61.06329 -150.64047 6986 ft 368 kts 11°
2026-05-01 10:38 61.08796 -150.63343 5749 ft 356 kts 11°
2026-05-01 10:38 61.11200 -150.62595 4812 ft 337 kts 11°
2026-05-01 10:38 61.13396 -150.61850 4523 ft 304 kts 11°
2026-05-01 10:39 61.15395 -150.61155 4234 ft 279 kts 11°
2026-05-01 10:39 61.17218 -150.60472 4032 ft 257 kts 18°
2026-05-01 10:39 61.18715 -150.58732 3973 ft 238 kts 39°
2026-05-01 10:39 61.19532 -150.55976 3924 ft 218 kts 68°
2026-05-01 10:40 61.19527 -150.53021 3965 ft 199 kts 98°
2026-05-01 10:40 61.18782 -150.50627 4023 ft 199 kts 127°
2026-05-01 10:40 61.17842 -150.48596 4082 ft 195 kts 130°
2026-05-01 10:40 61.17041 -150.46340 4039 ft 193 kts 123°
2026-05-01 10:41 61.16652 -150.43679 3826 ft 194 kts 101°
2026-05-01 10:41 61.16644 -150.40965 3752 ft 190 kts 90°
2026-05-01 10:41 61.16740 -150.35295 3176 ft 203 kts 88°
2026-05-01 10:42 61.16764 -150.32438 2885 ft 193 kts 89°
2026-05-01 10:42 61.16769 -150.29750 2621 ft 181 kts 90°
2026-05-01 10:42 61.16760 -150.27209 2384 ft 172 kts 90°
2026-05-01 10:42 61.16751 -150.24806 2187 ft 160 kts 90°
2026-05-01 10:43 61.16753 -150.22558 2006 ft 154 kts 90°
2026-05-01 10:43 61.16765 -150.20347 1781 ft 153 kts 89°
2026-05-01 10:43 61.16775 -150.18169 1569 ft 151 kts 89°
2026-05-01 10:43 61.16775 -150.15998 1364 ft 148 kts 90°
2026-05-01 10:44 61.16770 -150.13926 1170 ft 143 kts 90°
2026-05-01 10:44 61.16768 -150.11895 998 ft 140 kts 90°
2026-05-01 10:44 61.16773 -150.09874 814 ft 139 kts 90°
2026-05-01 10:44 61.16778 -150.07899 623 ft 137 kts 90°
2026-05-01 10:45 61.16781 -150.05917 440 ft 139 kts 90°
2026-05-01 10:45 61.16782 -150.03879 241 ft 141 kts 90°
2026-05-01 10:45 61.16783 -150.01927 166 ft 128 kts 90°
2026-05-01 10:45 61.16784 -150.00592 165 ft 54 kts 90°
2026-05-01 10:46 61.16786 -149.99996 165 ft 36 kts 89°
2026-05-01 10:46 61.16793 -149.99608 165 ft 19 kts 73°
2026-05-01 10:46 61.16891 -149.99396 165 ft 23 kts 38°
2026-05-01 10:46 61.16999 -149.99161 165 ft 23 kts 59°
2026-05-01 10:47 61.17083 -149.98860 165 ft 20 kts 60°
2026-05-01 10:47 61.17177 -149.98612 165 ft 21 kts 48°
2026-05-01 10:47 61.17208 -149.98541 165 ft 0 kts 47°